CAPE
0 0 0 0 0 0 0 0 0 0 0 0 0 0 0 0 0 0 0 0 0 0 0 0 0 0 0 0 0 15 21 66 61 25 31 123 273 373 348 414 398 391 482 354
0 0 0 0 0 0 0 0 0 0 0 0 0 0 0 0 0 0 0 0 0 0 0 0 0 0 0 0 0 8 41 49 53 72 130 206 373 455 391 406 457 469 522 567
0 0 0 0 0 0 0 0 0 0 0 0 0 0 0 0 0 0 0 0 0 0 0 0 0 0 0 0 0 2 22 40 62 103 139 227 225 345 443 383 334 284 311 358
0 0 0 0 0 0 0 0 0 0 0 0 0 0 0 0 0 0 0 0 0 0 0 0 0 0 0 0 0 0 12 57 92 149 209 389 557 576 290 303 231 224 93 193
0 0 0 0 0 0 0 0 0 0 0 0 0 0 0 0 0 0 0 0 0 0 0 0 0 0 0 0 0 0 32 102 133 131 190 458 740 249 242 191 250 272 268 221
0 0 0 0 0 0 0 0 0 0 0 0 0 0 0 0 0 0 0 0 0 0 0 0 0 0 0 0 0 4 77 152 90 116 193 542 524 243 106 202 245 251 278 392
0 0 0 0 0 0 0 0 0 0 0 0 0 0 0 0 0 0 0 0 0 0 0 0 0 0 0 0 0 16 107 53 70 69 133 279 264 133 94 115 180 265 328 475
0 0 0 0 0 0 0 0 0 0 0 0 0 0 0 0 0 0 0 0 0 0 0 0 0 0 0 0 10 21 87 52 46 122 261 154 165 7 5 65 145 159 304 443
0 0 0 0 0 0 0 0 0 0 0 0 0 0 0 0 0 0 0 0 0 0 0 0 0 0 0 0 39 76 77 45 91 53 146 117 201 0 73 139 85 162 307 355
0 0 0 0 0 0 0 0 0 0 0 0 0 0 0 0 0 0 0 0 0 0 0 0 0 0 0 0 32 56 20 18 49 0 167 148 184 2 77 102 118 190 299 333
0 0 0 0 0 0 0 0 0 0 0 0 0 0 0 0 0 11 0 0 0 0 0 0 0 0 0 0 0 0 0 0 0 0 95 210 217 93 58 84 64 115 212 242
0 0 0 0 0 0 0 0 0 0 0 0 0 0 0 0 0 0 0 0 0 0 0 0 0 0 0 0 0 0 0 0 0 19 4 129 320 248 117 73 56 94 163 182
5 0 0 0 0 0 0 0 0 0 0 0 0 0 0 0 0 0 0 0 0 0 0 0 0 0 0 0 0 0 0 1 0 0 2 441 435 345 242 38 65 83 235 276
9 0 0 0 0 0 0 0 0 0 0 0 0 0 0 0 0 0 0 0 0 0 0 0 0 0 0 0 0 0 0 0 0 0 30 497 426 300 99 59 167 113 282 355
3 1 0 0 0 0 0 0 0 0 0 0 0 0 0 0 0 0 0 0 0 0 0 0 0 0 0 0 0 0 0 0 0 0 238 371 341 178 70 165 102 267 313 328
1 2 0 0 0 0 0 0 0 0 0 0 0 0 0 0 0 0 0 0 0 0 0 0 0 0 0 0 0 0 0 0 0 19 236 113 224 53 126 198 270 327 283 368
14 6 0 0 0 0 0 0 0 0 0 0 0 0 0 0 0 0 0 0 0 0 1 0 0 0 0 0 0 0 0 0 0 15 161 131 254 55 103 179 265 406 420 488
3 4 0 0 0 0 0 0 0 0 0 0 0 0 0 0 0 0 0 0 1 0 4 0 0 0 0 0 0 0 0 0 0 1 143 153 161 29 138 217 259 229 444 499
10 14 4 0 0 0 0 0 0 0 0 0 0 0 0 0 0 0 0 0 14 71 11 3 0 0 0 0 0 0 0 0 0 0 96 108 289 65 205 306 149 129 313 255
11 6 11 0 0 0 0 0 0 0 0 0 0 0 0 0 0 0 0 0 0 7 10 1 0 0 0 0 0 0 0 0 0 0 2 21 168 346 215 320 24 23 135 131
34 27 19 9 0 0 0 0 0 0 0 0 0 0 0 0 0 0 0 0 0 0 10 0 0 0 0 0 0 0 0 0 0 0 0 1 157 449 266 265 5 2 28 5
34 27 26 2 0 0 3 0 0 0 0 0 0 0 0 0 0 0 0 0 0 0 0 0 0 0 0 0 0 0 0 0 0 0 0 0 137 189 172 245 7 1 77 21
30 26 29 18 16 2 1 3 0 0 0 0 0 0 0 0 0 0 0 0 0 0 0 0 1 0 0 0 0 0 0 0 0 0 0 0 46 50 125 202 56 0 57 20
20 10 32 9 5 1 0 0 0 0 0 0 0 0 0 0 0 0 0 0 0 0 0 0 0 0 0 0 0 0 0 0 0 0 0 0 0 66 49 80 52 0 0 0
22 13 9 14 3 0 0 0 0 0 0 0 0 0 0 0 0 0 0 0 0 0 0 0 0 0 0 0 0 0 0 0 0 0 0 0 0 16 79 102 52 7 2 0
27 25 17 12 4 4 0 0 0 0 0 0 0 0 0 0 0 0 0 0 0 0 0 0 0 0 0 0 0 0 0 0 0 0 0 0 0 0 80 95 0 0 0 0
CIN
0 0 0 0 0 0 0 0 0 0 0 0 0 0 0 0 0 0 0 0 0 0 0 0 0 0 0 0 0 -865 -753 -642 -577 -547 -423 -292 -165 -62 -55 -39 -30 -12 0 -1
0 0 0 0 0 0 0 0 0 0 0 0 0 0 0 0 0 0 0 0 0 0 0 0 0 0 0 0 0 -857 -688 -638 -530 -411 -327 -214 -88 -32 -37 -41 -16 -3 0 0
0 0 0 0 0 0 0 0 0 0 0 0 0 0 0 0 0 0 0 0 0 0 0 0 0 0 0 0 0 -374 -634 -559 -469 -362 -296 -182 -118 -53 -36 -35 -26 -14 -3 0
0 0 0 0 0 0 0 0 0 0 0 0 0 0 0 0 0 0 0 0 0 0 0 0 0 0 0 0 0 0 -555 -469 -377 -306 -190 -68 -8 -7 -40 -36 -27 -16 -24 -1
0 0 0 0 0 0 0 0 0 0 0 0 0 0 0 0 0 0 0 0 0 0 0 0 0 0 0 0 0 0 -448 -358 -310 -248 -135 -20 -11 -37 -43 -36 -14 -3 0 0
0 0 0 0 0 0 0 0 0 0 0 0 0 0 0 0 0 0 0 0 0 0 0 0 0 0 0 0 0 -513 -366 -283 -269 -182 -107 -19 -15 -32 -41 -20 -4 0 0 0
0 0 0 0 0 0 0 0 0 0 0 0 0 0 0 0 0 0 0 0 0 0 0 0 0 0 0 0 0 -414 -291 -285 -222 -160 -86 -29 -28 -47 -36 -16 -2 0 0 0
0 0 0 0 0 0 0 0 0 0 0 0 0 0 0 0 0 0 0 0 0 0 0 0 0 0 0 0 -448 -359 -271 -256 -211 -109 -32 -47 -48 -55 -62 -18 -4 0 0 0
0 0 0 0 0 0 0 0 0 0 0 0 0 0 0 0 0 0 0 0 0 0 0 0 0 0 0 0 -375 -296 -265 -244 -153 -125 -53 -48 -45 -2 -27 -14 -9 0 0 0
0 0 0 0 0 0 0 0 0 0 0 0 0 0 0 0 0 0 0 0 0 0 0 0 0 0 0 0 -349 -300 -327 -267 -171 0 -34 -31 -40 -7 -33 -24 -3 0 0 0
0 0 0 0 0 0 0 0 0 0 0 0 0 0 0 0 0 -99 0 0 0 0 0 0 0 0 0 0 0 0 0 0 0 -7 -42 -31 -36 -36 -36 -20 -5 -2 -1 0
0 0 0 0 0 0 0 0 0 0 0 0 0 0 0 0 0 0 0 0 0 0 0 0 0 0 0 0 0 0 0 0 0 -126 -102 -36 -27 -20 -21 -17 -1 -1 -6 -7
0 -26 0 0 0 0 0 0 0 0 0 0 0 0 0 0 0 0 0 0 0 0 0 0 0 0 0 0 0 0 0 -141 0 0 -26 -23 -21 -13 -7 -15 -4 0 0 -2
-1 0 0 0 0 0 0 0 0 0 0 0 0 0 0 0 0 0 0 0 0 0 0 0 0 0 0 0 0 0 0 0 0 0 -65 -16 -18 -11 -13 -7 0 0 0 0
0 0 0 0 0 0 0 0 0 0 0 0 0 0 0 0 0 0 0 0 0 0 0 0 0 0 0 0 0 0 0 0 0 -6 -11 -16 -24 -19 -25 -2 -2 0 -1 0
0 0 0 0 0 0 0 0 0 0 0 0 0 0 0 0 0 0 0 0 0 0 0 0 0 0 0 0 0 0 0 0 0 -148 -9 -30 -24 -49 -34 -13 -1 0 -4 0
0 0 0 0 0 0 0 0 0 0 0 0 0 0 0 0 0 0 0 0 0 0 -408 0 0 0 0 0 0 0 0 0 0 -205 -32 -27 -18 -59 -66 -36 -11 0 0 0
0 0 0 0 0 0 0 0 0 0 0 0 0 0 0 0 0 0 0 -80 -74 0 -428 0 0 0 0 0 0 0 0 0 0 -17 -69 -34 -15 -66 -45 -38 -34 -35 -5 0
0 0 0 0 0 0 0 0 0 0 0 0 0 0 0 0 0 0 0 0 -321 -359 -401 -433 0 0 0 0 0 0 0 0 0 0 -130 -76 -8 -55 -30 -25 -58 -68 -29 -22
0 0 -1 0 -1 0 0 0 0 0 0 0 0 0 0 0 0 0 0 0 0 -386 -406 -291 0 0 0 0 0 0 0 0 0 0 -73 -171 -63 -16 -29 -31 -120 -115 -60 -45
0 0 0 0 0 0 0 0 0 0 0 0 0 0 0 0 0 0 0 0 0 0 -461 0 0 0 0 0 0 0 0 0 0 0 0 -91 -118 -26 -41 -47 -196 -96 -119 -140
0 0 0 0 0 0 0 0 0 0 0 0 0 0 0 0 0 0 0 0 0 0 0 0 0 0 0 0 0 0 0 0 0 0 0 0 -168 -116 -124 -82 -145 -14 -99 -136
0 0 0 0 0 0 0 0 0 0 0 0 0 0 0 0 0 0 0 0 0 0 0 0 -293 0 0 0 0 0 0 0 0 0 0 0 -219 -232 -178 -123 -203 0 -161 -151
0 0 0 0 0 0 0 0 0 0 0 0 0 0 0 0 0 0 0 0 0 0 0 0 0 0 0 0 0 0 0 0 0 0 0 0 0 -270 -261 -216 -236 0 0 0
0 0 0 0 0 0 0 0 0 0 0 0 0 0 0 0 0 0 0 0 0 0 0 0 0 0 0 0 0 0 0 0 0 0 0 0 0 -212 -276 -242 -284 -299 -68 0
0 0 0 0 0 0 0 0 0 0 0 0 0 0 0 0 0 0 0 0 0 0 0 0 0 0 0 0 0 0 0 0 0 0 0 0 0 0 -292 -284 0 0 0 0
Wind_Speed
20 13 30 30 26 17 18 20 26 19 14 15 18 18 11 17 17 20 20 20 20 19 18 7 5 6 11 14 15 17 17 15 11 8 6 4 5 5 5 5 6 6 6 8
13 31 28 21 22 23 24 23 21 16 12 13 15 21 15 17 22 21 20 20 20 18 15 5 2 5 11 13 15 17 17 16 11 7 5 2 3 3 4 3 4 4 5 5
26 37 18 20 23 25 27 28 22 18 11 13 13 23 18 22 13 16 18 18 19 16 12 4 5 6 8 13 15 17 16 14 11 8 5 3 2 3 3 2 1 0 3 4
23 24 24 22 30 23 26 23 22 20 13 16 3 17 14 21 21 21 19 16 17 11 7 5 8 10 11 12 15 15 14 13 10 9 6 6 3 3 0 1 0 1 1 2
19 18 23 26 25 26 17 14 17 19 18 18 17 13 11 10 20 23 21 17 10 4 4 8 9 11 13 15 14 13 12 11 10 9 6 5 4 1 1 1 1 1 1 2
17 12 27 28 20 21 11 13 14 8 10 14 14 12 11 16 19 14 13 9 2 1 5 9 11 13 14 14 13 13 13 11 10 8 7 5 4 3 2 2 1 1 1 2
16 17 6 15 19 20 20 14 7 8 8 10 14 14 20 17 18 19 18 6 1 5 9 11 15 16 16 16 14 12 12 11 9 8 7 5 3 3 1 1 1 1 3 4
14 13 21 18 21 18 27 21 9 9 7 7 6 11 10 19 19 22 15 10 4 8 9 12 14 16 17 16 15 14 13 11 10 8 6 5 4 2 1 0 1 1 3 4
13 17 14 21 19 22 25 21 13 2 2 5 6 7 11 16 12 8 10 5 8 10 11 14 16 16 16 15 15 14 12 10 9 7 6 5 4 4 2 4 3 3 4 4
8 10 12 23 23 24 17 20 11 9 10 9 5 5 9 3 15 10 9 10 10 11 12 14 16 15 14 14 13 12 11 10 8 6 6 5 5 4 4 4 4 5 5 5
6 7 13 23 22 23 12 21 7 9 5 6 3 6 8 11 5 4 3 10 13 14 14 14 14 14 13 12 12 11 9 9 8 6 6 5 5 5 5 4 4 4 5 5
5 6 7 24 9 19 20 22 20 10 10 8 2 5 2 8 5 6 2 10 10 12 14 14 15 15 13 13 12 11 9 8 7 7 5 5 6 6 5 5 4 4 6 5
8 5 8 10 6 17 27 20 16 6 6 15 10 3 4 4 3 1 6 12 12 13 15 15 15 14 14 13 12 11 9 7 7 7 5 6 6 5 5 6 5 5 6 6
8 4 8 7 6 1 24 23 20 14 9 10 16 12 17 8 1 6 6 7 12 14 16 16 16 15 14 13 13 11 9 7 7 7 6 6 6 6 5 6 5 6 6 7
4 3 6 13 11 9 4 23 23 21 15 12 9 24 20 16 5 2 6 12 12 15 17 17 17 15 14 14 12 11 9 8 8 7 7 6 6 6 7 6 6 6 7 6
3 2 9 9 10 8 8 6 11 26 23 18 13 14 12 13 7 4 9 14 16 16 17 17 18 17 15 15 13 11 10 9 9 8 8 7 8 7 8 8 6 6 7 7
2 4 4 7 3 5 11 14 9 9 20 20 22 26 11 14 12 8 9 16 18 18 19 20 20 18 15 15 13 13 11 10 10 9 8 8 8 8 9 8 7 6 6 6
4 2 3 2 1 11 1 11 11 15 3 7 17 10 7 13 19 18 11 17 18 17 18 18 17 17 16 15 14 13 12 11 11 10 10 9 9 8 9 8 7 6 5 6
9 2 3 3 5 3 6 10 6 2 5 10 8 10 12 13 14 17 11 16 20 22 20 19 18 17 16 16 15 14 13 12 11 11 11 11 10 9 9 8 7 5 6 6
6 9 5 3 6 7 5 12 4 1 7 12 11 10 12 13 9 10 14 14 11 14 17 19 19 17 16 16 15 15 14 13 12 12 12 11 11 10 10 9 7 5 6 7
2 3 7 6 2 3 13 12 5 10 5 13 12 11 11 8 11 21 19 14 10 12 14 19 19 18 17 17 16 16 15 15 13 12 12 11 10 11 10 9 7 6 7 8
2 2 3 3 4 4 16 4 4 7 8 11 12 11 14 15 18 18 17 14 11 14 18 20 18 17 17 18 17 17 16 14 13 12 13 12 10 8 8 10 8 8 8 8
1 3 2 3 4 7 10 3 7 6 9 11 12 14 14 16 16 16 15 13 10 14 15 16 18 19 17 18 18 18 16 15 14 13 13 13 11 10 9 10 9 8 7 8
1 1 2 3 3 10 8 8 10 12 12 14 14 14 14 16 16 16 14 12 11 13 17 18 17 20 19 18 19 18 17 17 15 14 13 12 12 11 9 8 8 8 8 7
2 3 4 3 6 8 3 11 15 17 16 17 17 16 14 16 16 15 14 12 11 13 16 18 19 18 21 20 19 17 17 17 16 14 13 12 11 12 10 9 8 8 8 8
5 5 4 3 5 6 13 13 18 17 19 20 20 21 18 16 18 17 14 12 11 14 17 17 17 15 19 20 20 19 18 19 16 14 12 12 11 11 10 10 7 7 3 7
Wind_Direction
188 195 220 210 214 236 253 252 246 242 222 245 255 272 276 292 292 284 286 281 276 271 282 291 298 202 179 178 169 161 155 159 155 153 157 192 223 240 238 241 254 244 225 211
176 222 217 222 217 223 231 244 243 250 247 253 281 277 288 282 279 279 280 284 276 283 281 281 167 200 183 170 166 159 153 157 162 154 152 162 197 230 271 266 265 237 220 216
198 225 201 200 210 213 223 230 237 245 264 262 278 278 274 277 280 279 274 273 274 269 283 243 152 164 184 165 160 154 150 154 156 149 134 144 212 231 235 220 204 78 228 221
229 222 194 203 218 205 231 220 242 246 254 260 244 285 274 283 284 276 280 274 268 264 235 170 151 162 170 157 153 145 146 150 153 154 160 183 209 245 230 296 339 99 164 191
219 198 199 206 206 202 237 220 228 235 239 264 255 268 281 276 274 274 273 267 271 304 209 155 158 154 157 153 147 144 143 150 151 159 175 182 203 221 176 190 200 138 131 139
224 205 195 208 198 198 182 215 209 221 237 246 251 245 277 263 256 275 266 250 350 8 125 135 144 145 148 149 145 145 149 152 151 163 173 189 208 171 191 202 205 192 146 128
219 225 209 194 193 190 189 179 174 207 217 256 248 233 244 262 248 255 263 289 56 135 138 149 150 148 150 152 150 153 156 151 159 174 179 194 171 165 202 246 244 178 152 170
208 190 205 189 193 186 187 185 188 194 196 223 161 213 248 242 254 244 250 281 187 154 151 149 151 153 154 155 156 161 158 153 169 173 180 173 146 150 153 101 63 110 166 155
214 224 188 184 180 166 189 204 191 208 36 254 163 252 281 247 257 236 236 207 177 157 159 151 156 164 158 158 167 163 157 162 166 170 173 162 153 152 147 86 98 148 140 143
280 233 203 182 185 202 189 172 188 211 211 233 190 260 251 236 226 212 200 193 162 160 150 159 165 166 164 163 164 159 163 165 164 172 171 164 155 166 137 118 133 140 130 139
284 272 172 170 201 185 176 186 185 192 224 209 244 236 208 237 218 196 180 163 166 153 158 165 169 167 161 163 162 161 161 160 160 173 166 163 155 164 142 134 141 140 130 134
322 303 235 198 188 193 197 187 183 188 190 213 261 250 24 257 272 251 184 135 146 157 158 164 169 163 165 168 163 163 159 171 163 163 164 160 150 157 148 143 148 143 134 137
343 239 227 147 161 201 201 193 190 174 155 199 203 232 172 257 262 139 159 138 154 164 154 166 170 168 173 169 168 163 166 169 165 162 169 150 150 144 143 140 148 135 134 132
328 257 288 210 165 56 199 194 195 194 198 188 217 218 264 278 352 92 108 147 164 171 161 169 170 172 178 171 172 165 166 170 161 154 164 147 144 137 140 137 146 141 133 134
18 275 313 284 276 280 171 197 199 202 207 215 201 225 238 268 298 54 179 157 174 173 171 172 171 176 178 170 175 166 167 170 161 153 158 140 137 128 131 129 134 131 130 130
3 334 336 257 235 248 251 201 215 212 223 233 248 251 237 275 289 222 180 171 187 184 172 172 175 179 178 173 177 166 167 167 163 155 155 143 137 133 133 131 129 129 130 133
241 341 333 224 344 286 249 223 201 202 227 226 228 240 257 280 273 248 191 186 196 183 174 177 179 181 180 177 175 170 170 163 164 161 156 151 142 137 138 138 135 130 132 140
226 261 266 261 256 225 152 39 232 217 149 264 242 256 323 297 301 294 245 202 197 188 174 178 179 180 180 174 176 166 167 169 166 167 163 157 148 138 141 139 131 134 134 141
226 215 252 226 206 76 49 24 347 329 110 16 334 324 321 320 305 276 237 212 207 188 179 176 176 176 172 173 173 168 171 171 172 173 172 168 158 152 150 142 136 129 138 134
203 220 267 191 223 201 24 338 322 168 166 4 348 335 330 330 243 249 2 346 248 213 172 170 170 170 172 175 171 169 174 177 182 177 177 175 171 170 164 147 144 133 129 128
154 127 201 230 275 116 354 332 178 193 43 339 337 327 317 294 292 316 317 316 294 200 191 163 167 172 177 169 171 175 176 185 184 176 175 175 174 176 167 149 147 142 132 127
118 189 167 217 227 163 359 4 72 357 329 334 331 326 313 301 298 300 301 299 291 197 175 178 167 174 173 172 173 178 184 185 178 174 175 175 173 175 168 160 146 145 141 133
131 13 28 292 31 342 346 10 50 357 328 336 333 326 318 309 305 303 297 291 272 203 185 188 173 167 174 177 179 180 185 177 174 175 177 174 171 173 171 171 158 151 160 153
15 343 289 311 44 326 320 40 12 355 341 335 335 330 325 314 314 305 298 283 253 202 191 177 186 172 175 182 184 185 175 176 175 177 179 175 176 174 173 175 174 168 172 172
13 291 341 296 330 329 217 357 344 338 343 340 335 337 335 328 321 311 302 286 254 203 192 182 188 183 177 179 184 178 178 176 177 177 176 180 183 183 175 184 181 189 189 184
356 2 3 339 320 285 295 315 324 327 334 335 334 334 338 340 329 320 304 291 262 204 188 188 186 188 176 183 182 177 178 179 174 178 177 179 183 186 185 179 174 54 7 200